Location: ??????
(55.8274°N, 37.9338°E)
Time: 03:45:05
(UTC+00:00)

Cosmos 2322 Rocket - Pass Details

Date: 14 April 2024
Orbit: 833 x 849 km, 71.0° (Epoch: 20 May)

Event Time Altitude Azimuth Distance (km) Brightness Sun altitude
Exits shadow 00:19:20 19° 257° (WSW) 1,913 3.6 -15.7°
Maximum altitude 00:23:01 41° 319° (NW) 1,205 3.0 -15.3°
Drops below altitude 10° 00:28:19 10° 29° (NNE) 2,456 5.8 -14.8°
Sets 00:30:55 0° 37° (NE) 3,393 7.1 -14.5°
